owner,sensor,date,latitude,longitude,vertical_datum,direction_of_sea_water_velocity,sea_water_speed,upward_sea_water_velocity,qcFlag 
TABS,ioos:station:wmo:42045:1,2016-09-01T00:00:00Z,26.2168,-96.4998,2.0,175.0748376,50.4362112,-99999.0,'11111222,11111222,99999999' 
TABS,ioos:station:wmo:42045:1,2016-09-01T00:30:00Z,26.2168,-96.4998,2.0,174.8094534,50.84849654,-99999.0,'11111222,11111222,99999999' 
TABS,ioos:station:wmo:42045:1,2016-09-01T01:00:00Z,26.2168,-96.4998,2.0,179.0763266,47.77620537,-99999.0,'11111222,11111222,99999999' 
TABS,ioos:station:wmo:42045:1,2016-09-01T01:30:00Z,26.2168,-96.4998,2.0,183.6893296,50.19403351,-99999.0,'11111222,11111222,99999999' 
TABS,ioos:station:wmo:42045:1,2016-09-01T02:00:00Z,26.2168,-96.4998,2.0,189.4712505,51.41085197,-99999.0,'11111222,11111222,99999999' 
TABS,ioos:station:wmo:42045:1,2016-09-01T02:30:00Z,26.2168,-96.4998,2.0,191.7799202,49.22680774,-99999.0,'11111222,11111222,99999999' 
TABS,ioos:station:wmo:42045:1,2016-09-01T03:00:00Z,26.2168,-96.4998,2.0,195.4030572,46.45879572,-99999.0,'11111222,11111222,99999999' 
TABS,ioos:station:wmo:42045:1,2016-09-01T03:30:00Z,26.2168,-96.4998,2.0,198.2231831,44.54414664,-99999.0,'11111222,11111222,99999999' 
TABS,ioos:station:wmo:42045:1,2016-09-01T04:00:00Z,26.2168,-96.4998,2.0,200.6746255,44.01458849,-99999.0,'11111222,11111222,99999999' 
TABS,ioos:station:wmo:42045:1,2016-09-01T04:30:00Z,26.2168,-96.4998,2.0,203.9526825,42.68616872,-99999.0,'11111222,11111222,99999999' 
TABS,ioos:station:wmo:42045:1,2016-09-01T05:00:00Z,26.2168,-96.4998,2.0,208.2873902,41.5067633,-99999.0,'11111222,11111222,99999999' 
TABS,ioos:station:wmo:42045:1,2016-09-01T05:30:00Z,26.2168,-96.4998,2.0,211.3343141,36.03603752,-99999.0,'11111222,11111222,99999999' 
TABS,ioos:station:wmo:42045:1,2016-09-01T06:00:00Z,26.2168,-96.4998,2.0,218.0957547,36.82443211,-99999.0,'11111222,11111222,99999999' 
TABS,ioos:station:wmo:42045:1,2016-09-01T06:30:00Z,26.2168,-96.4998,2.0,219.1144602,33.23950962,-99999.0,'11111222,11111222,99999999' 
TABS,ioos:station:wmo:42045:1,2016-09-01T07:00:00Z,26.2168,-96.4998,2.0,225.3538612,29.74147945,-99999.0,'11111222,11111222,99999999' 
TABS,ioos:station:wmo:42045:1,2016-09-01T07:30:00Z,26.2168,-96.4998,2.0,229.0027472,29.37416892,-99999.0,'11111222,11111222,99999999' 
TABS,ioos:station:wmo:42045:1,2016-09-01T08:00:00Z,26.2168,-96.4998,2.0,235.3954641,28.68442434,-99999.0,'11111222,11111222,99999999' 
TABS,ioos:station:wmo:42045:1,2016-09-01T08:30:00Z,26.2168,-96.4998,2.0,234.3255603,25.87563526,-99999.0,'11111222,11111222,99999999' 
TABS,ioos:station:wmo:42045:1,2016-09-01T09:00:00Z,26.2168,-96.4998,2.0,240.1232309,24.85290526,-99999.0,'11111222,11111222,99999999' 
TABS,ioos:station:wmo:42045:1,2016-09-01T09:30:00Z,26.2168,-96.4998,2.0,239.7090799,21.74923677,-99999.0,'11111222,11111222,99999999' 
TABS,ioos:station:wmo:42045:1,2016-09-01T10:00:00Z,26.2168,-96.4998,2.0,246.4903473,21.30872122,-99999.0,'11111222,11111222,99999999' 
TABS,ioos:station:wmo:42045:1,2016-09-01T10:30:00Z,26.2168,-96.4998,2.0,243.1981582,16.2563526,-99999.0,'11111222,11111222,99999999' 
TABS,ioos:station:wmo:42045:1,2016-09-01T11:00:00Z,26.2168,-96.4998,2.0,248.4050898,14.40076734,-99999.0,'11111222,11111222,99999999' 
TABS,ioos:station:wmo:42045:1,2016-09-01T11:30:00Z,26.2168,-96.4998,2.0,249.3319382,12.01312615,-99999.0,'11111222,11111222,99999999' 
TABS,ioos:station:wmo:42045:1,2016-09-01T12:00:00Z,26.2168,-96.4998,2.0,259.3131993,14.23691329,-99999.0,'11111222,11111222,99999999' 
TABS,ioos:station:wmo:42045:1,2016-09-01T12:30:00Z,26.2168,-96.4998,2.0,252.2910952,11.4736655,-99999.0,'11111222,11111222,99999999' 
TABS,ioos:station:wmo:42045:1,2016-09-01T13:00:00Z,26.2168,-96.4998,2.0,242.7553301,9.808083401,-99999.0,'11133222,11111222,99999999' 
TABS,ioos:station:wmo:42045:1,2016-09-01T13:30:00Z,26.2168,-96.4998,2.0,259.6840861,9.605253771,-99999.0,'11133222,11111222,99999999' 
TABS,ioos:station:wmo:42045:1,2016-09-01T14:00:00Z,26.2168,-96.4998,2.0,265.2503613,9.904004241,-99999.0,'11133222,11111222,99999999' 
TABS,ioos:station:wmo:42045:1,2016-09-01T14:30:00Z,26.2168,-96.4998,2.0,262.0178657,6.553487621,-99999.0,'11133222,11111222,99999999' 
TABS,ioos:station:wmo:42045:1,2016-09-01T15:00:00Z,26.2168,-96.4998,2.0,222.4592228,4.147722266,-99999.0,'11133222,11111222,99999999' 
TABS,ioos:station:wmo:42045:1,2016-09-01T15:30:00Z,26.2168,-96.4998,2.0,220.4696635,3.312536792,-99999.0,'11133222,11111222,99999999' 
TABS,ioos:station:wmo:42045:1,2016-09-01T16:00:00Z,26.2168,-96.4998,2.0,203.7917783,4.437082375,-99999.0,'11133222,11111222,99999999' 
TABS,ioos:station:wmo:42045:1,2016-09-01T16:30:00Z,26.2168,-96.4998,2.0,184.1768867,5.354222633,-99999.0,'11133222,11111222,99999999' 
TABS,ioos:station:wmo:42045:1,2016-09-01T17:00:00Z,26.2168,-96.4998,2.0,189.2517541,6.717387885,-99999.0,'11133222,11111222,99999999' 
TABS,ioos:station:wmo:42045:1,2016-09-01T17:30:00Z,26.2168,-96.4998,2.0,165.7506904,9.79123077,-99999.0,'11133222,11111222,99999999' 
TABS,ioos:station:wmo:42045:1,2016-09-01T18:00:00Z,26.2168,-96.4998,2.0,169.5404856,14.92804408,-99999.0,'11111222,11111222,99999999' 
TABS,ioos:station:wmo:42045:1,2016-09-01T18:30:00Z,26.2168,-96.4998,2.0,167.0614107,21.39314376,-99999.0,'11111222,11111222,99999999' 
TABS,ioos:station:wmo:42045:1,2016-09-01T19:00:00Z,26.2168,-96.4998,2.0,167.7633924,21.46771762,-99999.0,'11111222,11111222,99999999' 
TABS,ioos:station:wmo:42045:1,2016-09-01T19:30:00Z,26.2168,-96.4998,2.0,169.2058643,22.2130142,-99999.0,'11111222,11111222,99999999' 
TABS,ioos:station:wmo:42045:1,2016-09-01T20:00:00Z,26.2168,-96.4998,2.0,167.3557283,24.25829755,-99999.0,'11111222,11111222,99999999' 
TABS,ioos:station:wmo:42045:1,2016-09-01T20:30:00Z,26.2168,-96.4998,2.0,174.2734084,28.86403991,-99999.0,'11111222,11111222,99999999' 
TABS,ioos:station:wmo:42045:1,2016-09-01T21:00:00Z,26.2168,-96.4998,2.0,174.994242,30.4862674,-99999.0,'11111222,11111222,99999999' 
TABS,ioos:station:wmo:42045:1,2016-09-01T21:30:00Z,26.2168,-96.4998,2.0,175.8340374,30.56073952,-99999.0,'11111222,11111222,99999999' 
TABS,ioos:station:wmo:42045:1,2016-09-01T22:00:00Z,26.2168,-96.4998,2.0,182.6023457,31.27225607,-99999.0,'11111222,11111222,99999999' 
TABS,ioos:station:wmo:42045:1,2016-09-01T22:30:00Z,26.2168,-96.4998,2.0,182.3032528,33.8373418,-99999.0,'11111222,11111222,99999999' 
TABS,ioos:station:wmo:42045:1,2016-09-01T23:00:00Z,26.2168,-96.4998,2.0,186.5080541,33.87832936,-99999.0,'11111222,11111222,99999999' 
TABS,ioos:station:wmo:42045:1,2016-09-01T23:30:00Z,26.2168,-96.4998,2.0,188.8990312,36.13499827,-99999.0,'11111222,11111222,99999999' 
TABS,ioos:station:wmo:42045:1,2016-09-02T00:00:00Z,26.2168,-96.4998,2.0,191.2241088,35.44803097,-99999.0,'11111222,11111222,99999999' 
TABS,ioos:station:wmo:42045:1,2016-09-02T00:30:00Z,26.2168,-96.4998,2.0,191.6396209,37.12343869,-99999.0,'11111222,11111222,99999999' 
TABS,ioos:station:wmo:42045:1,2016-09-02T01:00:00Z,26.2168,-96.4998,2.0,190.8578465,32.32878903,-99999.0,'11111222,11111222,99999999' 
TABS,ioos:station:wmo:42045:1,2016-09-02T01:30:00Z,26.2168,-96.4998,2.0,196.7700891,33.96454622,-99999.0,'11111222,11111222,99999999' 
TABS,ioos:station:wmo:42045:1,2016-09-02T02:00:00Z,26.2168,-96.4998,2.0,193.7128054,35.68725963,-99999.0,'11111222,11111222,99999999' 
TABS,ioos:station:wmo:42045:1,2016-09-02T02:30:00Z,26.2168,-96.4998,2.0,192.713996,33.85000591,-99999.0,'11111222,11111222,99999999' 
TABS,ioos:station:wmo:42045:1,2016-09-02T03:00:00Z,26.2168,-96.4998,2.0,197.7382505,35.3821763,-99999.0,'11111222,11111222,99999999' 
TABS,ioos:station:wmo:42045:1,2016-09-02T03:30:00Z,26.2168,-96.4998,2.0,197.9956568,36.31666284,-99999.0,'11111222,11111222,99999999' 
TABS,ioos:station:wmo:42045:1,2016-09-02T04:00:00Z,26.2168,-96.4998,2.0,198.4451183,34.76608117,-99999.0,'11111222,11111222,99999999' 
TABS,ioos:station:wmo:42045:1,2016-09-02T04:30:00Z,26.2168,-96.4998,2.0,199.8378337,34.09325153,-99999.0,'11111222,11111222,99999999' 
TABS,ioos:station:wmo:42045:1,2016-09-02T05:00:00Z,26.2168,-96.4998,2.0,202.3535329,33.12958798,-99999.0,'11111222,11111222,99999999' 
TABS,ioos:station:wmo:42045:1,2016-09-02T05:30:00Z,26.2168,-96.4998,2.0,207.0601177,31.03778343,-99999.0,'11111222,11111222,99999999' 
TABS,ioos:station:wmo:42045:1,2016-09-02T06:00:00Z,26.2168,-96.4998,2.0,208.626976,29.95140397,-99999.0,'11111222,11111222,99999999' 
TABS,ioos:station:wmo:42045:1,2016-09-02T06:30:00Z,26.2168,-96.4998,2.0,210.4633176,29.86247143,-99999.0,'11111222,11111222,99999999' 
TABS,ioos:station:wmo:42045:1,2016-09-02T07:00:00Z,26.2168,-96.4998,2.0,215.244333,27.50106362,-99999.0,'11111222,11111222,99999999' 
TABS,ioos:station:wmo:42045:1,2016-09-02T07:30:00Z,26.2168,-96.4998,2.0,212.1147352,27.14341541,-99999.0,'11111222,11111222,99999999' 
TABS,ioos:station:wmo:42045:1,2016-09-02T08:00:00Z,26.2168,-96.4998,2.0,215.5066215,25.981351,-99999.0,'11111222,11111222,99999999' 
TABS,ioos:station:wmo:42045:1,2016-09-02T08:30:00Z,26.2168,-96.4998,2.0,212.4272687,24.16860774,-99999.0,'11111222,11111222,99999999' 
TABS,ioos:station:wmo:42045:1,2016-09-02T09:00:00Z,26.2168,-96.4998,2.0,214.8016902,25.440568,-99999.0,'11111222,11111222,99999999' 
TABS,ioos:station:wmo:42045:1,2016-09-02T09:30:00Z,26.2168,-96.4998,2.0,212.7483369,23.12579945,-99999.0,'11111222,11111222,99999999' 
TABS,ioos:station:wmo:42045:1,2016-09-02T10:00:00Z,26.2168,-96.4998,2.0,208.9708357,23.3293399,-99999.0,'11111222,11111222,99999999' 
TABS,ioos:station:wmo:42045:1,2016-09-02T10:30:00Z,26.2168,-96.4998,2.0,207.6245337,20.55298032,-99999.0,'11111222,11111222,99999999' 
TABS,ioos:station:wmo:42045:1,2016-09-02T11:00:00Z,26.2168,-96.4998,2.0,207.0402502,20.47861568,-99999.0,'11111222,11111222,99999999' 
TABS,ioos:station:wmo:42045:1,2016-09-02T11:30:00Z,26.2168,-96.4998,2.0,201.0760001,18.04731836,-99999.0,'11111222,11111222,99999999' 
TABS,ioos:station:wmo:42045:1,2016-09-02T12:00:00Z,26.2168,-96.4998,2.0,200.5359349,20.26801668,-99999.0,'11111222,11111222,99999999' 
TABS,ioos:station:wmo:42045:1,2016-09-02T12:30:00Z,26.2168,-96.4998,2.0,198.2598737,19.69159465,-99999.0,'11111222,11111222,99999999' 
TABS,ioos:station:wmo:42045:1,2016-09-02T13:00:00Z,26.2168,-96.4998,2.0,192.0086146,18.16758927,-99999.0,'11111222,11111222,99999999' 
TABS,ioos:station:wmo:42045:1,2016-09-02T13:30:00Z,26.2168,-96.4998,2.0,193.7903357,17.53548688,-99999.0,'11111222,11111222,99999999' 
TABS,ioos:station:wmo:42045:1,2016-09-02T14:00:00Z,26.2168,-96.4998,2.0,196.7084996,17.32133078,-99999.0,'11111222,11111222,99999999' 
TABS,ioos:station:wmo:42045:1,2016-09-02T14:30:00Z,26.2168,-96.4998,2.0,190.1186357,17.3600288,-99999.0,'11111222,11111222,99999999' 
TABS,ioos:station:wmo:42045:1,2016-09-02T15:00:00Z,26.2168,-96.4998,2.0,188.968968,17.38254872,-99999.0,'11111222,11111222,99999999' 
TABS,ioos:station:wmo:42045:1,2016-09-02T15:30:00Z,26.2168,-96.4998,2.0,183.425756,20.91738272,-99999.0,'11111222,11111222,99999999' 
TABS,ioos:station:wmo:42045:1,2016-09-02T16:00:00Z,26.2168,-96.4998,2.0,187.3839437,22.48648705,-99999.0,'11111222,11111222,99999999' 
TABS,ioos:station:wmo:42045:1,2016-09-02T16:30:00Z,26.2168,-96.4998,2.0,189.5974761,20.8721537,-99999.0,'11111222,11111222,99999999' 
TABS,ioos:station:wmo:42045:1,2016-09-02T17:00:00Z,26.2168,-96.4998,2.0,183.6091571,22.71505668,-99999.0,'11111222,11111222,99999999' 
TABS,ioos:station:wmo:42045:1,2016-09-02T17:30:00Z,26.2168,-96.4998,2.0,181.1499534,23.41471759,-99999.0,'11111222,11111222,99999999' 
TABS,ioos:station:wmo:42045:1,2016-09-02T18:00:00Z,26.2168,-96.4998,2.0,179.4529497,23.05104987,-99999.0,'11111222,11111222,99999999' 
TABS,ioos:station:wmo:42045:1,2016-09-02T18:30:00Z,26.2168,-96.4998,2.0,182.4090226,23.5508174,-99999.0,'11111222,11111222,99999999' 
TABS,ioos:station:wmo:42045:1,2016-09-02T19:00:00Z,26.2168,-96.4998,2.0,187.4321603,25.20174002,-99999.0,'11111222,11111222,99999999' 
TABS,ioos:station:wmo:42045:1,2016-09-02T19:30:00Z,26.2168,-96.4998,2.0,185.7585645,27.20731152,-99999.0,'11111222,11111222,99999999' 
TABS,ioos:station:wmo:42045:1,2016-09-02T20:00:00Z,26.2168,-96.4998,2.0,185.4510675,27.26330317,-99999.0,'11111222,11111222,99999999' 
TABS,ioos:station:wmo:42045:1,2016-09-02T20:30:00Z,26.2168,-96.4998,2.0,182.3609472,27.91369915,-99999.0,'11111222,11111222,99999999' 
TABS,ioos:station:wmo:42045:1,2016-09-02T21:00:00Z,26.2168,-96.4998,2.0,187.2501857,33.43736383,-99999.0,'11111222,11111222,99999999' 
TABS,ioos:station:wmo:42045:1,2016-09-02T21:30:00Z,26.2168,-96.4998,2.0,187.0517023,31.11537883,-99999.0,'11111222,11111222,99999999' 
TABS,ioos:station:wmo:42045:1,2016-09-02T22:00:00Z,26.2168,-96.4998,2.0,190.3683371,30.55901831,-99999.0,'11111222,11111222,99999999' 
TABS,ioos:station:wmo:42045:1,2016-09-02T22:30:00Z,26.2168,-96.4998,2.0,197.1089533,32.52957116,-99999.0,'11111222,11111222,99999999' 
TABS,ioos:station:wmo:42045:1,2016-09-02T23:00:00Z,26.2168,-96.4998,2.0,197.0805695,36.53134681,-99999.0,'11111222,11111222,99999999' 
TABS,ioos:station:wmo:42045:1,2016-09-02T23:30:00Z,26.2168,-96.4998,2.0,200.0172801,34.12134229,-99999.0,'11111222,11111222,99999999' 
TABS,ioos:station:wmo:42045:1,2016-09-03T00:00:00Z,26.2168,-96.4998,2.0,196.5128835,34.79513903,-99999.0,'11111222,11111222,99999999' 
TABS,ioos:station:wmo:42045:1,2016-09-03T00:30:00Z,26.2168,-96.4998,2.0,199.2082558,33.49473541,-99999.0,'11111222,11111222,99999999' 
TABS,ioos:station:wmo:42045:1,2016-09-03T01:00:00Z,26.2168,-96.4998,2.0,199.1059895,32.65908296,-99999.0,'11111222,11111222,99999999' 
TABS,ioos:station:wmo:42045:1,2016-09-03T01:30:00Z,26.2168,-96.4998,2.0,196.2397693,31.78840197,-99999.0,'11111222,11111222,99999999' 
TABS,ioos:station:wmo:42045:1,2016-09-03T02:00:00Z,26.2168,-96.4998,2.0,198.6787883,32.66030006,-99999.0,'11111222,11111222,99999999' 
TABS,ioos:station:wmo:42045:1,2016-09-03T02:30:00Z,26.2168,-96.4998,2.0,192.7197231,32.83586149,-99999.0,'11111222,11111222,99999999' 
TABS,ioos:station:wmo:42045:1,2016-09-03T03:00:00Z,26.2168,-96.4998,2.0,192.5189594,32.33890845,-99999.0,'11111222,11111222,99999999' 
TABS,ioos:station:wmo:42045:1,2016-09-03T03:30:00Z,26.2168,-96.4998,2.0,190.3262633,33.13674094,-99999.0,'11111222,11111222,99999999' 
TABS,ioos:station:wmo:42045:1,2016-09-03T04:00:00Z,26.2168,-96.4998,2.0,187.0862985,33.23387429,-99999.0,'11111222,11111222,99999999' 
TABS,ioos:station:wmo:42045:1,2016-09-03T04:30:00Z,26.2168,-96.4998,2.0,190.8507016,33.78404949,-99999.0,'11111222,11111222,99999999' 
TABS,ioos:station:wmo:42045:1,2016-09-03T05:00:00Z,26.2168,-96.4998,2.0,189.1378347,34.56872864,-99999.0,'11111222,11111222,99999999' 
TABS,ioos:station:wmo:42045:1,2016-09-03T05:30:00Z,26.2168,-96.4998,2.0,189.9835685,34.31971008,-99999.0,'11111222,11111222,99999999' 
TABS,ioos:station:wmo:42045:1,2016-09-03T06:00:00Z,26.2168,-96.4998,2.0,189.0800689,34.02641474,-99999.0,'11111222,11111222,99999999' 
TABS,ioos:station:wmo:42045:1,2016-09-03T06:30:00Z,26.2168,-96.4998,2.0,188.4748633,36.64010917,-99999.0,'11111222,11111222,99999999' 
TABS,ioos:station:wmo:42045:1,2016-09-03T07:00:00Z,26.2168,-96.4998,2.0,191.5557037,36.54069512,-99999.0,'11111222,11111222,99999999' 
TABS,ioos:station:wmo:42045:1,2016-09-03T07:30:00Z,26.2168,-96.4998,2.0,194.3260924,35.92726263,-99999.0,'11111222,11111222,99999999' 
TABS,ioos:station:wmo:42045:1,2016-09-03T08:00:00Z,26.2168,-96.4998,2.0,200.2395216,34.13791148,-99999.0,'11111222,11111222,99999999' 
TABS,ioos:station:wmo:42045:1,2016-09-03T08:30:00Z,26.2168,-96.4998,2.0,204.6741234,34.15888171,-99999.0,'11111222,11111222,99999999' 
TABS,ioos:station:wmo:42045:1,2016-09-03T09:00:00Z,26.2168,-96.4998,2.0,203.6004803,36.66691151,-99999.0,'11111222,11111222,99999999' 
TABS,ioos:station:wmo:42045:1,2016-09-03T09:30:00Z,26.2168,-96.4998,2.0,197.1589692,32.81043889,-99999.0,'11111222,11111222,99999999' 
TABS,ioos:station:wmo:42045:1,2016-09-03T10:00:00Z,26.2168,-96.4998,2.0,196.2916902,36.11000554,-99999.0,'11111222,11111222,99999999' 
TABS,ioos:station:wmo:42045:1,2016-09-03T10:30:00Z,26.2168,-96.4998,2.0,193.8713216,32.90979489,-99999.0,'11111222,11111222,99999999' 
TABS,ioos:station:wmo:42045:1,2016-09-03T11:00:00Z,26.2168,-96.4998,2.0,193.4444666,31.00983231,-99999.0,'11111222,11111222,99999999' 
TABS,ioos:station:wmo:42045:1,2016-09-03T11:30:00Z,26.2168,-96.4998,2.0,191.1741249,26.52282036,-99999.0,'11111222,11111222,99999999' 
TABS,ioos:station:wmo:42045:1,2016-09-03T12:00:00Z,26.2168,-96.4998,2.0,190.7643258,29.87572426,-99999.0,'11111222,11111222,99999999' 
TABS,ioos:station:wmo:42045:1,2016-09-03T12:30:00Z,26.2168,-96.4998,2.0,189.9287712,30.67951271,-99999.0,'11111222,11111222,99999999' 
TABS,ioos:station:wmo:42045:1,2016-09-03T13:00:00Z,26.2168,-96.4998,2.0,190.2014302,29.30327115,-99999.0,'11111222,11111222,99999999' 
TABS,ioos:station:wmo:42045:1,2016-09-03T13:30:00Z,26.2168,-96.4998,2.0,187.9964565,29.75937667,-99999.0,'11111222,11111222,99999999' 
TABS,ioos:station:wmo:42045:1,2016-09-03T14:00:00Z,26.2168,-96.4998,2.0,191.1862304,29.12331369,-99999.0,'11111222,11111222,99999999' 
TABS,ioos:station:wmo:42045:1,2016-09-03T14:30:00Z,26.2168,-96.4998,2.0,186.8973588,29.06032691,-99999.0,'11111222,11111222,99999999' 
TABS,ioos:station:wmo:42045:1,2016-09-03T15:00:00Z,26.2168,-96.4998,2.0,183.259696,29.36752118,-99999.0,'11111222,11111222,99999999' 
TABS,ioos:station:wmo:42045:1,2016-09-03T15:30:00Z,26.2168,-96.4998,2.0,185.2095101,30.50602072,-99999.0,'11111222,11111222,99999999' 
TABS,ioos:station:wmo:42045:1,2016-09-03T16:00:00Z,26.2168,-96.4998,2.0,185.7392373,31.59840502,-99999.0,'11111222,11111222,99999999' 
TABS,ioos:station:wmo:42045:1,2016-09-03T16:30:00Z,26.2168,-96.4998,2.0,188.5135433,31.67909405,-99999.0,'11111222,11111222,99999999' 
TABS,ioos:station:wmo:42045:1,2016-09-03T17:00:00Z,26.2168,-96.4998,2.0,190.4729222,30.75232837,-99999.0,'11111222,11111222,99999999' 
TABS,ioos:station:wmo:42045:1,2016-09-03T17:30:00Z,26.2168,-96.4998,2.0,186.1824097,32.12686104,-99999.0,'11111222,11111222,99999999' 
TABS,ioos:station:wmo:42045:1,2016-09-03T18:00:00Z,26.2168,-96.4998,2.0,188.4983285,30.78806587,-99999.0,'11111222,11111222,99999999' 
TABS,ioos:station:wmo:42045:1,2016-09-03T18:30:00Z,26.2168,-96.4998,2.0,188.9676281,31.24190295,-99999.0,'11111222,11111222,99999999' 
TABS,ioos:station:wmo:42045:1,2016-09-03T19:00:00Z,26.2168,-96.4998,2.0,188.0820909,32.2200388,-99999.0,'11111222,11111222,99999999' 
TABS,ioos:station:wmo:42045:1,2016-09-03T19:30:00Z,26.2168,-96.4998,2.0,184.9441676,31.32657179,-99999.0,'11111222,11111222,99999999' 
TABS,ioos:station:wmo:42045:1,2016-09-03T20:00:00Z,26.2168,-96.4998,2.0,183.1399063,31.21687044,-99999.0,'11111222,11111222,99999999' 
TABS,ioos:station:wmo:42045:1,2016-09-03T20:30:00Z,26.2168,-96.4998,2.0,188.8165518,27.14070743,-99999.0,'11111222,11111222,99999999' 
TABS,ioos:station:wmo:42045:1,2016-09-03T21:00:00Z,26.2168,-96.4998,2.0,184.4805807,29.43998132,-99999.0,'11111222,11111222,99999999' 
TABS,ioos:station:wmo:42045:1,2016-09-03T21:30:00Z,26.2168,-96.4998,2.0,180.5964034,30.73166608,-99999.0,'11111222,11111222,99999999' 
TABS,ioos:station:wmo:42045:1,2016-09-03T22:00:00Z,26.2168,-96.4998,2.0,181.9993698,31.23902207,-99999.0,'11111222,11111222,99999999' 
TABS,ioos:station:wmo:42045:1,2016-09-03T22:30:00Z,26.2168,-96.4998,2.0,178.6488161,30.53848883,-99999.0,'11111222,11111222,99999999' 
TABS,ioos:station:wmo:42045:1,2016-09-03T23:00:00Z,26.2168,-96.4998,2.0,175.1106379,29.5675836,-99999.0,'11111222,11111222,99999999' 
TABS,ioos:station:wmo:42045:1,2016-09-03T23:30:00Z,26.2168,-96.4998,2.0,176.5673086,30.06393354,-99999.0,'11111222,11111222,99999999' 
TABS,ioos:station:wmo:42045:1,2016-09-04T00:00:00Z,26.2168,-96.4998,2.0,175.1610105,27.85929109,-99999.0,'11111222,11111222,99999999' 
TABS,ioos:station:wmo:42045:1,2016-09-04T00:30:00Z,26.2168,-96.4998,2.0,170.2196201,26.37329141,-99999.0,'11111222,11111222,99999999' 
TABS,ioos:station:wmo:42045:1,2016-09-04T01:00:00Z,26.2168,-96.4998,2.0,170.3083663,25.89962355,-99999.0,'11111222,11111222,99999999' 
TABS,ioos:station:wmo:42045:1,2016-09-04T01:30:00Z,26.2168,-96.4998,2.0,169.4399347,25.31880131,-99999.0,'11111222,11111222,99999999' 
TABS,ioos:station:wmo:42045:1,2016-09-04T02:00:00Z,26.2168,-96.4998,2.0,164.0022359,27.14108509,-99999.0,'11111222,11111222,99999999' 
TABS,ioos:station:wmo:42045:1,2016-09-04T02:30:00Z,26.2168,-96.4998,2.0,164.4142898,26.4630346,-99999.0,'11111222,11111222,99999999' 
TABS,ioos:station:wmo:42045:1,2016-09-04T03:00:00Z,26.2168,-96.4998,2.0,164.858607,27.79490061,-99999.0,'11111222,11111222,99999999' 
TABS,ioos:station:wmo:42045:1,2016-09-04T03:30:00Z,26.2168,-96.4998,2.0,160.9676075,28.21221189,-99999.0,'11111222,11111222,99999999' 
TABS,ioos:station:wmo:42045:1,2016-09-04T04:00:00Z,26.2168,-96.4998,2.0,158.8887066,26.82006711,-99999.0,'11111222,11111222,99999999' 
TABS,ioos:station:wmo:42045:1,2016-09-04T04:30:00Z,26.2168,-96.4998,2.0,160.1377154,30.34514294,-99999.0,'11111222,11111222,99999999' 
TABS,ioos:station:wmo:42045:1,2016-09-04T05:00:00Z,26.2168,-96.4998,2.0,165.0088194,29.110742,-99999.0,'11111222,11111222,99999999' 
TABS,ioos:station:wmo:42045:1,2016-09-04T05:30:00Z,26.2168,-96.4998,2.0,166.1790119,28.38171947,-99999.0,'11111222,11111222,99999999' 
TABS,ioos:station:wmo:42045:1,2016-09-04T06:00:00Z,26.2168,-96.4998,2.0,169.9793279,29.19535751,-99999.0,'11111222,11111222,99999999' 
TABS,ioos:station:wmo:42045:1,2016-09-04T06:30:00Z,26.2168,-96.4998,2.0,170.8374639,28.88858598,-99999.0,'11111222,11111222,99999999' 
TABS,ioos:station:wmo:42045:1,2016-09-04T07:00:00Z,26.2168,-96.4998,2.0,168.5918306,27.50336707,-99999.0,'11111222,11111222,99999999' 
TABS,ioos:station:wmo:42045:1,2016-09-04T07:30:00Z,26.2168,-96.4998,2.0,166.951337,26.30932344,-99999.0,'11111222,11111222,99999999' 
TABS,ioos:station:wmo:42045:1,2016-09-04T08:00:00Z,26.2168,-96.4998,2.0,168.2555622,28.20034929,-99999.0,'11111222,11111222,99999999' 
TABS,ioos:station:wmo:42045:1,2016-09-04T08:30:00Z,26.2168,-96.4998,2.0,168.0739203,25.35732044,-99999.0,'11111222,11111222,99999999' 
TABS,ioos:station:wmo:42045:1,2016-09-04T09:00:00Z,26.2168,-96.4998,2.0,169.3096936,24.47476455,-99999.0,'11111222,11111222,99999999' 
TABS,ioos:station:wmo:42045:1,2016-09-04T09:30:00Z,26.2168,-96.4998,2.0,172.5275138,25.37549211,-99999.0,'11111222,11111222,99999999' 
TABS,ioos:station:wmo:42045:1,2016-09-04T10:00:00Z,26.2168,-96.4998,2.0,171.6426339,21.05356264,-99999.0,'11111222,11111222,99999999' 
TABS,ioos:station:wmo:42045:1,2016-09-04T10:30:00Z,26.2168,-96.4998,2.0,174.3024954,21.45598751,-99999.0,'11111222,11111222,99999999' 
TABS,ioos:station:wmo:42045:1,2016-09-04T11:00:00Z,26.2168,-96.4998,2.0,171.3196172,19.14933419,-99999.0,'11111222,11111222,99999999' 
TABS,ioos:station:wmo:42045:1,2016-09-04T11:30:00Z,26.2168,-96.4998,2.0,168.1563558,6.528989202,-99999.0,'11133222,11111222,99999999' 
TABS,ioos:station:wmo:42045:1,2016-09-04T12:00:00Z,26.2168,-96.4998,2.0,165.0633918,22.07589183,-99999.0,'11111222,11111222,99999999' 
TABS,ioos:station:wmo:42045:1,2016-09-04T12:30:00Z,26.2168,-96.4998,2.0,168.7333552,20.67849124,-99999.0,'11111222,11111222,99999999' 
TABS,ioos:station:wmo:42045:1,2016-09-04T13:00:00Z,26.2168,-96.4998,2.0,164.1537369,19.8129175,-99999.0,'11111222,11111222,99999999' 
TABS,ioos:station:wmo:42045:1,2016-09-04T13:30:00Z,26.2168,-96.4998,2.0,164.4324789,19.15260035,-99999.0,'11111222,11111222,99999999' 
TABS,ioos:station:wmo:42045:1,2016-09-04T14:00:00Z,26.2168,-96.4998,2.0,155.7204684,20.74485478,-99999.0,'11111222,11111222,99999999' 
TABS,ioos:station:wmo:42045:1,2016-09-04T14:30:00Z,26.2168,-96.4998,2.0,156.775456,20.41421319,-99999.0,'11111222,11111222,99999999' 
TABS,ioos:station:wmo:42045:1,2016-09-04T15:00:00Z,26.2168,-96.4998,2.0,154.4470824,18.73222891,-99999.0,'11111222,11111222,99999999' 
TABS,ioos:station:wmo:42045:1,2016-09-04T15:30:00Z,26.2168,-96.4998,2.0,145.841154,17.29335711,-99999.0,'11111222,11111222,99999999' 
TABS,ioos:station:wmo:42045:1,2016-09-04T16:00:00Z,26.2168,-96.4998,2.0,150.66171,14.3276132,-99999.0,'11111222,11111222,99999999' 